TimeMST,TemperatureF,Dew PointF,Humidity,Sea Level PressureIn,VisibilityMPH,Wind Direction,Wind SpeedMPH,Gust SpeedMPH,PrecipitationIn,Events,Conditions,WindDirDegrees,DateUTC
12:14 AM,24.8,21.2,86,29.63,1.5,NNW,25.3,36.8,0.00,Snow,Light Snow,340,2012-11-10 07:14:00
12:26 AM,24.8,21.2,86,29.62,1.0,NNW,24.2,35.7,0.00,Snow,Light Snow,340,2012-11-10 07:26:00
12:34 AM,24.8,21.2,86,29.63,0.5,NNW,21.9,35.7,0.00,Fog-Snow,Snow,340,2012-11-10 07:34:00
12:45 AM,23.0,21.2,93,29.63,0.2,NNW,23.0,28.8,0.00,Fog-Snow,Heavy Snow,340,2012-11-10 07:45:00
12:53 AM,23.0,19.9,88,29.72,0.5,NNW,23.0,36.8,0.01,Fog-Snow,Snow,340,2012-11-10 07:53:00
1:03 AM,23.0,19.4,86,29.64,0.8,NNW,23.0,35.7,0.00,Snow,Light Snow,340,2012-11-10 08:03:00
1:08 AM,23.0,19.4,86,29.64,1.0,NNW,24.2,35.7,0.00,Snow,Light Snow,340,2012-11-10 08:08:00
1:17 AM,23.0,19.4,86,29.64,1.5,NNW,23.0,31.1,0.00,Snow,Light Snow,340,2012-11-10 08:17:00
1:26 AM,23.0,19.4,86,29.64,0.8,NNW,28.8,38.0,0.00,Snow,Light Snow,340,2012-11-10 08:26:00
1:53 AM,21.0,18.0,88,29.73,1.2,NNW,21.9,36.8,0.00,Snow,Light Snow,340,2012-11-10 08:53:00
2:01 AM,19.4,17.6,93,29.65,2.0,North,23.0,35.7,0.00,Snow,Light Snow,350,2012-11-10 09:01:00
2:34 AM,19.4,15.8,86,29.65,4.0,North,28.8,35.7,0.00,Snow,Blowing Snow,350,2012-11-10 09:34:00
2:53 AM,19.9,16.0,85,29.77,5.0,North,25.3,36.8,0.00,Snow,Blowing Snow,350,2012-11-10 09:53:00
3:19 AM,19.4,15.8,86,29.64,2.0,North,32.2,39.1,N/A,Snow,Blowing Snow,350,2012-11-10 10:19:00
3:33 AM,19.4,15.8,86,29.64,1.5,North,31.1,38.0,0.00,,Overcast,350,2012-11-10 10:33:00
3:45 AM,19.4,15.8,86,29.64,1.5,North,33.4,42.6,0.00,Snow,Light Snow,350,2012-11-10 10:45:00
3:53 AM,19.0,15.1,85,29.75,1.5,NNW,31.1,42.6,0.00,,Overcast,340,2012-11-10 10:53:00
4:04 AM,17.6,12.2,79,29.65,3.0,NNW,32.2,36.8,0.00,Snow,Blowing Snow,340,2012-11-10 11:04:00
4:53 AM,18.0,12.9,81,29.77,4.0,NNW,28.8,38.0,0.00,,Overcast,340,2012-11-10 11:53:00
5:53 AM,17.1,12.9,84,29.78,5.0,NNW,27.6,38.0,0.00,Snow,Blowing Snow,340,2012-11-10 12:53:00
6:25 AM,17.6,12.2,79,29.67,8.0,NNW,24.2,36.8,0.00,,Overcast,340,2012-11-10 13:25:00
6:53 AM,17.1,10.9,77,29.80,7.0,North,26.5,35.7,0.00,Snow,Light Snow,350,2012-11-10 13:53:00
7:49 AM,15.8,10.4,79,29.71,1.8,NNW,25.3,36.8,0.00,Snow,Light Snow,340,2012-11-10 14:49:00
7:50 AM,16.0,10.9,81,29.83,1.5,NNW,27.6,36.8,0.00,Snow,Light Snow,340,2012-11-10 14:50:00
8:16 AM,15.8,10.4,79,29.71,1.0,North,26.5,38.0,0.00,Snow,Light Snow,350,2012-11-10 15:16:00
8:23 AM,15.8,10.4,79,29.72,1.2,NNW,24.2,35.7,0.00,Snow,Light Snow,340,2012-11-10 15:23:00
8:37 AM,15.8,10.4,79,29.73,0.8,NNW,26.5,35.7,0.00,Snow,Light Snow,340,2012-11-10 15:37:00
8:53 AM,15.1,10.9,84,29.84,0.5,NNW,28.8,43.7,0.00,Fog-Snow,Snow,340,2012-11-10 15:53:00
9:33 AM,15.8,10.4,79,29.71,1.0,NNW,26.5,36.8,0.00,Snow,Light Snow,340,2012-11-10 16:33:00
9:45 AM,15.8,10.4,79,29.72,1.5,NNW,27.6,36.8,0.00,Snow,Light Snow,340,2012-11-10 16:45:00
9:53 AM,15.1,10.0,80,29.86,1.2,NNW,27.6,38.0,0.00,Snow,Light Snow,340,2012-11-10 16:53:00
10:08 AM,15.8,10.4,79,29.72,1.2,NNW,24.2,36.8,0.00,Snow,Light Snow,340,2012-11-10 17:08:00
10:17 AM,15.8,10.4,79,29.72,1.0,NNW,29.9,39.1,0.00,Snow,Light Snow,340,2012-11-10 17:17:00
10:26 AM,15.8,10.4,79,29.72,0.8,NNW,29.9,39.1,0.00,Snow,Light Snow,340,2012-11-10 17:26:00
10:32 AM,15.8,10.4,79,29.72,1.0,NNW,32.2,38.0,0.00,Snow,Light Snow,340,2012-11-10 17:32:00
10:41 AM,15.8,10.4,79,29.71,1.5,NNW,28.8,39.1,0.00,Snow,Light Snow,340,2012-11-10 17:41:00
10:53 AM,15.1,10.0,80,29.84,1.0,North,32.2,39.1,0.00,Snow,Light Snow,350,2012-11-10 17:53:00
11:22 AM,15.8,8.6,73,29.71,1.2,North,32.2,41.4,0.00,Snow,Light Snow,350,2012-11-10 18:22:00
11:44 AM,14.0,8.6,79,29.71,0.8,North,33.4,44.9,0.00,Snow,Light Snow,350,2012-11-10 18:44:00
11:53 AM,14.0,9.0,80,29.85,0.8,North,33.4,43.7,0.00,Snow,Light Snow,350,2012-11-10 18:53:00
12:06 PM,15.8,8.6,73,29.71,1.0,NNW,29.9,42.6,0.00,Snow,Light Snow,340,2012-11-10 19:06:00
12:16 PM,15.8,8.6,73,29.71,1.5,NNW,27.6,38.0,0.00,Snow,Light Snow,340,2012-11-10 19:16:00
12:25 PM,14.0,8.6,79,29.72,1.2,NNW,26.5,36.8,0.00,Snow,Light Snow,340,2012-11-10 19:25:00
12:35 PM,14.0,8.6,79,29.72,1.5,North,29.9,36.8,0.00,Snow,Light Snow,350,2012-11-10 19:35:00
12:46 PM,14.0,8.6,79,29.71,1.2,NNW,32.2,39.1,0.00,Snow,Light Snow,340,2012-11-10 19:46:00
12:53 PM,14.0,9.0,80,29.86,1.2,NNW,32.2,38.0,0.00,Snow,Light Snow,340,2012-11-10 19:53:00
1:09 PM,14.0,8.6,79,29.73,2.0,NNW,26.5,38.0,0.00,Snow,Light Snow,340,2012-11-10 20:09:00
1:26 PM,14.0,8.6,79,29.75,2.5,NNW,25.3,36.8,0.00,Snow,Light Snow,340,2012-11-10 20:26:00
1:38 PM,14.0,8.6,79,29.75,1.5,North,27.6,34.5,0.00,Snow,Light Snow,350,2012-11-10 20:38:00
1:48 PM,14.0,8.6,79,29.74,2.0,North,28.8,33.4,0.00,Snow,Light Snow,360,2012-11-10 20:48:00
1:53 PM,14.0,8.1,77,29.90,1.8,North,29.9,33.4,0.00,Snow,Light Snow,350,2012-11-10 20:53:00
2:01 PM,14.0,8.6,79,29.76,2.5,North,24.2,34.5,0.00,Snow,Light Snow,360,2012-11-10 21:01:00
2:22 PM,12.2,6.8,79,29.77,3.0,North,28.8,34.5,0.00,Snow,Light Snow,350,2012-11-10 21:22:00
2:53 PM,12.9,8.1,81,29.93,2.5,NNW,21.9,34.5,0.00,Snow,Light Snow,340,2012-11-10 21:53:00
3:04 PM,12.2,6.8,79,29.77,4.0,NNW,23.0,33.4,0.00,Snow,Light Snow,340,2012-11-10 22:04:00
3:15 PM,12.2,6.8,79,29.77,5.0,NNW,26.5,38.0,0.00,,Overcast,340,2012-11-10 22:15:00
3:53 PM,10.9,6.1,81,29.97,10.0,North,20.7,31.1,0.00,,Overcast,350,2012-11-10 22:53:00
4:05 PM,10.4,6.8,85,29.80,9.0,North,21.9,33.4,0.00,,Mostly Cloudy,350,2012-11-10 23:05:00
4:53 PM,8.1,3.9,83,30.00,10.0,NNW,19.6,25.3,0.00,,Clear,340,2012-11-10 23:53:00
5:12 PM,8.6,5.0,85,29.82,7.0,North,20.7,29.9,0.00,Snow,Light Snow,350,2012-11-11 00:12:00
5:22 PM,8.6,5.0,85,29.83,3.0,North,19.6,31.1,0.00,Snow,Light Snow,350,2012-11-11 00:22:00
5:53 PM,10.0,5.0,80,30.01,4.0,NNW,23.0,33.4,0.00,Snow,Light Snow,340,2012-11-11 00:53:00
6:10 PM,8.6,5.0,85,29.84,8.0,NNW,23.0,29.9,0.00,,Mostly Cloudy,330,2012-11-11 01:10:00
6:18 PM,8.6,5.0,85,29.84,8.0,NNW,21.9,29.9,0.00,Snow,Light Snow,330,2012-11-11 01:18:00
6:27 PM,8.6,3.2,79,29.84,9.0,NNW,20.7,26.5,0.00,,Partly Cloudy,340,2012-11-11 01:27:00
6:53 PM,9.0,3.9,80,30.04,10.0,North,19.6,-,0.00,,Scattered Clouds,350,2012-11-11 01:53:00
7:22 PM,8.6,5.0,85,29.87,9.0,NW,11.5,-,N/A,,Overcast,320,2012-11-11 02:22:00
7:42 PM,8.6,5.0,85,29.88,2.5,NNW,6.9,-,0.00,Snow,Light Snow,330,2012-11-11 02:42:00
7:50 PM,10.4,5.0,79,29.88,7.0,ENE,3.5,-,0.00,Snow,Light Snow,70,2012-11-11 02:50:00
7:53 PM,9.0,5.0,84,30.07,9.0,East,3.5,-,0.00,,Overcast,90,2012-11-11 02:53:00
8:12 PM,8.6,5.0,85,29.88,8.0,North,3.5,-,N/A,,Overcast,360,2012-11-11 03:12:00
9:08 PM,8.6,5.0,85,29.88,2.0,North,4.6,-,0.00,Snow,Light Snow,350,2012-11-11 04:08:00
9:15 PM,8.6,5.0,85,29.88,1.5,NNW,4.6,-,0.00,Snow,Light Snow,330,2012-11-11 04:15:00
9:53 PM,8.1,3.9,83,30.07,1.5,North,3.5,-,0.00,Snow,Light Snow,350,2012-11-11 04:53:00
10:22 PM,8.6,3.2,79,29.87,2.5,North,6.9,-,0.00,Snow,Light Snow,360,2012-11-11 05:22:00
10:30 PM,8.6,3.2,79,29.87,4.0,North,4.6,-,0.00,Snow,Light Snow,10,2012-11-11 05:30:00
10:53 PM,8.1,3.9,83,30.07,5.0,NNE,4.6,-,0.00,Snow,Light Snow,20,2012-11-11 05:53:00
11:43 PM,5.0,1.4,85,29.87,10.0,Calm,Calm,-,0.00,,Scattered Clouds,0,2012-11-11 06:43:00
11:53 PM,3.9,1.0,88,30.09,10.0,Calm,Calm,-,0.00,,Clear,0,2012-11-11 06:53:00